CFG861 EGGW-EHAM

Flight info

Callsign CFG861
Flight time 0h 43m
Altitude 27000
Route EGGW/07 N0376F270 MATC2C MATCH Q295 BRAIN M197 REDFA REDF1A EHAM/09
Aircraft A320/M-V/N

Departure

Time 2026-05-05 22:00
Airport London Luton Airport (EGGW)

Arrival

Time 2026-05-05 22:43
Airport Amsterdam Airport Schiphol (EHAM)
Time Latitude Longitude Altitude Speed Heading
2026-05-05 21:35 51.87680 -0.37178 521 ft 0 kts 344°
2026-05-05 21:48 51.87675 -0.37176 521 ft 2 kts 343°
2026-05-05 21:48 51.87665 -0.37170 521 ft 2 kts 342°
2026-05-05 21:48 51.87649 -0.37162 521 ft 2 kts 339°
2026-05-05 21:49 51.87629 -0.37148 521 ft 2 kts 331°
2026-05-05 21:49 51.87619 -0.37139 521 ft 2 kts 321°
2026-05-05 21:49 51.87609 -0.37119 521 ft 2 kts 279°
2026-05-05 21:49 51.87609 -0.37098 521 ft 1 kts 256°
2026-05-05 21:50 51.87609 -0.37096 521 ft 0 kts 255°
2026-05-05 21:52 51.87602 -0.37143 521 ft 5 kts 255°
2026-05-05 21:52 51.87588 -0.37220 521 ft 9 kts 253°
2026-05-05 21:52 51.87579 -0.37334 521 ft 12 kts 279°
2026-05-05 21:53 51.87566 -0.37452 521 ft 12 kts 211°
2026-05-05 21:53 51.87504 -0.37545 522 ft 14 kts 253°
2026-05-05 21:53 51.87476 -0.37708 522 ft 16 kts 254°
2026-05-05 21:53 51.87442 -0.37901 522 ft 19 kts 254°
2026-05-05 21:54 51.87374 -0.38057 523 ft 13 kts 193°
2026-05-05 21:54 51.87353 -0.38077 523 ft 0 kts 205°
2026-05-05 21:57 51.87348 -0.38081 523 ft 2 kts 205°
2026-05-05 21:58 51.87322 -0.38101 523 ft 6 kts 205°
2026-05-05 21:58 51.87273 -0.38103 523 ft 8 kts 154°
2026-05-05 21:58 51.87260 -0.38018 523 ft 4 kts 76°
2026-05-05 21:58 51.87261 -0.38013 523 ft 0 kts 74°
2026-05-05 21:59 51.87263 -0.38004 523 ft 10 kts 74°
2026-05-05 22:00 51.87349 -0.37510 522 ft 79 kts 73°
2026-05-05 22:00 51.87547 -0.36383 520 ft 129 kts 74°
2026-05-05 22:00 51.87796 -0.34832 788 ft 147 kts 72°
2026-05-05 22:00 51.88046 -0.33308 1616 ft 135 kts 72°
2026-05-05 22:01 51.88299 -0.31875 2224 ft 133 kts 72°
2026-05-05 22:01 51.88585 -0.30323 2603 ft 154 kts 73°
2026-05-05 22:01 51.88902 -0.28551 3100 ft 173 kts 72°
2026-05-05 22:01 51.89246 -0.26587 3625 ft 193 kts 73°
2026-05-05 22:02 51.89624 -0.24346 4098 ft 219 kts 77°
2026-05-05 22:02 51.89534 -0.21752 4631 ft 248 kts 107°
2026-05-05 22:02 51.88614 -0.19234 4951 ft 271 kts 125°
2026-05-05 22:02 51.87701 -0.16623 4999 ft 269 kts 110°
2026-05-05 22:03 51.87295 -0.13692 5153 ft 269 kts 95°
2026-05-05 22:03 51.87067 -0.10653 5814 ft 273 kts 95°
2026-05-05 22:03 51.86848 -0.07609 6870 ft 275 kts 94°
2026-05-05 22:03 51.86623 -0.04508 7795 ft 280 kts 95°
2026-05-05 22:04 51.86389 -0.01357 8705 ft 286 kts 95°
2026-05-05 22:04 51.86145 0.01864 9649 ft 291 kts 95°
2026-05-05 22:04 51.85893 0.05159 10433 ft 301 kts 95°
2026-05-05 22:04 51.85626 0.08653 10804 ft 325 kts 95°
2026-05-05 22:05 51.85341 0.12357 11195 ft 344 kts 96°
2026-05-05 22:05 51.85039 0.16240 11980 ft 349 kts 96°
2026-05-05 22:05 51.84730 0.20177 12798 ft 355 kts 96°
2026-05-05 22:05 51.84416 0.24173 13617 ft 360 kts 97°
2026-05-05 22:06 51.84097 0.28223 14382 ft 364 kts 97°
2026-05-05 22:06 51.83774 0.32298 15156 ft 367 kts 97°
2026-05-05 22:06 51.83446 0.36421 15923 ft 370 kts 97°
2026-05-05 22:06 51.83118 0.40519 16671 ft 373 kts 97°
2026-05-05 22:07 51.82781 0.44706 17421 ft 377 kts 97°
2026-05-05 22:07 51.82441 0.48923 18206 ft 379 kts 97°
2026-05-05 22:07 51.82097 0.53163 18835 ft 383 kts 97°
2026-05-05 22:07 51.81746 0.57458 19407 ft 388 kts 97°
2026-05-05 22:08 51.81443 0.61805 20004 ft 392 kts 93°
2026-05-05 22:08 51.81488 0.66230 20590 ft 395 kts 84°
2026-05-05 22:08 51.81931 0.70637 21191 ft 399 kts 76°
2026-05-05 22:08 51.82615 0.75011 21775 ft 403 kts 76°
2026-05-05 22:09 51.83290 0.79379 22364 ft 407 kts 76°
2026-05-05 22:09 51.83983 0.83840 22938 ft 411 kts 75°
2026-05-05 22:09 51.84777 0.88312 23523 ft 414 kts 73°
2026-05-05 22:09 51.85622 0.92799 24020 ft 418 kts 72°
2026-05-05 22:10 51.86474 0.97317 24515 ft 421 kts 73°
2026-05-05 22:10 51.87319 1.01863 24998 ft 424 kts 73°
2026-05-05 22:10 51.88158 1.06441 25478 ft 426 kts 74°
2026-05-05 22:10 51.88999 1.11071 25934 ft 429 kts 74°
2026-05-05 22:11 51.89832 1.15690 26213 ft 437 kts 74°
2026-05-05 22:11 51.90695 1.20488 26333 ft 448 kts 74°
2026-05-05 22:11 51.91574 1.25392 26447 ft 459 kts 74°
2026-05-05 22:11 51.92470 1.30406 26553 ft 468 kts 74°
2026-05-05 22:12 51.93384 1.35524 26658 ft 477 kts 75°
2026-05-05 22:12 51.94312 1.40739 26750 ft 486 kts 75°
2026-05-05 22:12 51.95252 1.46037 26872 ft 491 kts 75°
2026-05-05 22:12 51.96195 1.51368 26976 ft 492 kts 75°
2026-05-05 22:13 51.97136 1.56697 26971 ft 492 kts 75°
2026-05-05 22:13 51.98074 1.62033 26971 ft 492 kts 75°
2026-05-05 22:13 51.99009 1.67370 26971 ft 492 kts 75°
2026-05-05 22:13 51.99917 1.72730 26972 ft 491 kts 76°
2026-05-05 22:14 52.00756 1.78114 26968 ft 492 kts 77°
2026-05-05 22:14 52.01573 1.83502 26968 ft 492 kts 77°
2026-05-05 22:14 52.02381 1.88822 26966 ft 492 kts 77°
2026-05-05 22:14 52.03204 1.94218 26966 ft 492 kts 77°
2026-05-05 22:15 52.04031 1.99618 26963 ft 492 kts 77°
2026-05-05 22:15 52.04858 2.05016 26966 ft 492 kts 77°
2026-05-05 22:15 52.05682 2.10410 26965 ft 492 kts 77°
2026-05-05 22:15 52.06507 2.15821 26960 ft 492 kts 77°
2026-05-05 22:16 52.07329 2.21230 26961 ft 492 kts 77°
2026-05-05 22:16 52.08147 2.26636 26959 ft 493 kts 77°
2026-05-05 22:16 52.08964 2.32046 26960 ft 492 kts 77°
2026-05-05 22:16 52.09777 2.37454 26960 ft 493 kts 77°
2026-05-05 22:17 52.10586 2.42805 26955 ft 493 kts 76°
2026-05-05 22:17 52.11660 2.48110 26959 ft 493 kts 69°
2026-05-05 22:17 52.13103 2.53190 26960 ft 495 kts 62°
2026-05-05 22:17 52.14831 2.58028 26953 ft 495 kts 60°
2026-05-05 22:18 52.16587 2.62857 26954 ft 495 kts 60°
2026-05-05 22:18 52.18332 2.67688 26954 ft 495 kts 60°
2026-05-05 22:18 52.20077 2.72535 26960 ft 496 kts 60°
2026-05-05 22:18 52.21829 2.77404 26963 ft 496 kts 60°
2026-05-05 22:19 52.23574 2.82263 26950 ft 496 kts 60°
2026-05-05 22:19 52.25317 2.87126 26951 ft 496 kts 60°
2026-05-05 22:19 52.27055 2.91981 26957 ft 496 kts 60°
2026-05-05 22:19 52.28775 2.96796 26953 ft 496 kts 60°
2026-05-05 22:20 52.30523 3.01695 26951 ft 497 kts 60°
2026-05-05 22:20 52.32259 3.06575 26952 ft 497 kts 60°
2026-05-05 22:20 52.33996 3.11464 26955 ft 497 kts 60°
2026-05-05 22:20 52.35738 3.16376 26959 ft 497 kts 60°
2026-05-05 22:21 52.37470 3.21271 26958 ft 497 kts 60°
2026-05-05 22:21 52.39201 3.26172 26963 ft 497 kts 60°
2026-05-05 22:21 52.40911 3.31024 26960 ft 498 kts 60°
2026-05-05 22:21 52.42640 3.35940 26957 ft 497 kts 61°
2026-05-05 22:22 52.44176 3.41021 26956 ft 497 kts 68°
2026-05-05 22:22 52.45348 3.46335 26957 ft 496 kts 75°
2026-05-05 22:22 52.46186 3.51818 26954 ft 496 kts 78°
2026-05-05 22:22 52.46965 3.57313 26888 ft 493 kts 78°
2026-05-05 22:23 52.47748 3.62748 26618 ft 480 kts 78°
2026-05-05 22:23 52.48500 3.67969 26374 ft 459 kts 78°
2026-05-05 22:23 52.49215 3.72961 26136 ft 438 kts 78°
2026-05-05 22:23 52.49881 3.77653 25920 ft 417 kts 78°
2026-05-05 22:24 52.50520 3.82180 25702 ft 397 kts 78°
2026-05-05 22:24 52.51128 3.86502 25441 ft 381 kts 78°
2026-05-05 22:24 52.51717 3.90715 24824 ft 376 kts 78°
2026-05-05 22:24 52.52044 3.94944 24137 ft 371 kts 95°
2026-05-05 22:25 52.51523 3.99038 23420 ft 365 kts 115°
2026-05-05 22:25 52.50291 4.02581 22673 ft 360 kts 125°
2026-05-05 22:25 52.48934 4.06025 22004 ft 356 kts 125°
2026-05-05 22:25 52.47602 4.09414 21353 ft 352 kts 124°
2026-05-05 22:26 52.46296 4.12743 20726 ft 348 kts 124°
2026-05-05 22:26 52.44993 4.16068 20102 ft 345 kts 124°
2026-05-05 22:26 52.43699 4.19365 19486 ft 341 kts 124°
2026-05-05 22:26 52.42420 4.22621 18919 ft 337 kts 124°
2026-05-05 22:27 52.41155 4.25840 18311 ft 334 kts 124°
2026-05-05 22:27 52.39879 4.29079 17213 ft 344 kts 123°
2026-05-05 22:27 52.38558 4.32428 16004 ft 356 kts 123°
2026-05-05 22:27 52.37192 4.35888 14701 ft 368 kts 123°
2026-05-05 22:28 52.35779 4.39463 13253 ft 380 kts 123°
2026-05-05 22:28 52.34322 4.43101 11659 ft 392 kts 125°
2026-05-05 22:28 52.32552 4.46611 10318 ft 396 kts 134°
2026-05-05 22:28 52.30624 4.49694 9223 ft 390 kts 131°
2026-05-05 22:29 52.29140 4.53342 8133 ft 382 kts 114°
2026-05-05 22:29 52.28412 4.57459 7079 ft 375 kts 96°
2026-05-05 22:29 52.28504 4.61645 6052 ft 367 kts 77°
2026-05-05 22:29 52.29368 4.65495 5139 ft 356 kts 63°
2026-05-05 22:30 52.30374 4.69050 4804 ft 332 kts 66°
2026-05-05 22:30 52.31089 4.72505 4562 ft 310 kts 73°
2026-05-05 22:30 52.31469 4.75810 4522 ft 279 kts 81°
2026-05-05 22:30 52.31676 4.78813 4371 ft 260 kts 82°
2026-05-05 22:31 52.31841 4.81655 4216 ft 243 kts 83°
2026-05-05 22:31 52.32002 4.84323 4054 ft 226 kts 74°
2026-05-05 22:31 52.32684 4.86521 4087 ft 219 kts 45°
2026-05-05 22:31 52.33960 4.87813 4576 ft 217 kts 15°
2026-05-05 22:32 52.35407 4.87907 4826 ft 203 kts 345°
2026-05-05 22:32 52.36622 4.86842 4923 ft 199 kts 317°
2026-05-05 22:32 52.37378 4.84948 4906 ft 201 kts 289°
2026-05-05 22:32 52.37748 4.82738 4908 ft 202 kts 287°
2026-05-05 22:33 52.38115 4.80552 4911 ft 201 kts 288°
2026-05-05 22:33 52.38495 4.78355 4910 ft 200 kts 288°
2026-05-05 22:33 52.38882 4.76152 4910 ft 201 kts 288°
2026-05-05 22:33 52.39267 4.73968 4876 ft 198 kts 288°
2026-05-05 22:34 52.39649 4.71802 4623 ft 198 kts 288°
2026-05-05 22:34 52.40032 4.69626 4312 ft 199 kts 288°
2026-05-05 22:34 52.40416 4.67438 4004 ft 200 kts 289°
2026-05-05 22:34 52.40799 4.65253 3748 ft 199 kts 289°
2026-05-05 22:35 52.41181 4.63064 3458 ft 200 kts 289°
2026-05-05 22:35 52.41565 4.60867 3190 ft 200 kts 289°
2026-05-05 22:35 52.41944 4.58703 2998 ft 194 kts 289°
2026-05-05 22:35 52.42318 4.56567 3003 ft 200 kts 289°
2026-05-05 22:36 52.42486 4.54355 2999 ft 201 kts 261°
2026-05-05 22:36 52.41843 4.52323 2996 ft 202 kts 223°
2026-05-05 22:36 52.40725 4.51169 2991 ft 182 kts 206°
2026-05-05 22:36 52.39589 4.50266 3017 ft 184 kts 205°
2026-05-05 22:37 52.38810 4.49655 3008 ft 188 kts 205°
2026-05-05 22:37 52.37652 4.48716 3030 ft 184 kts 206°
2026-05-05 22:37 52.36518 4.47766 3004 ft 182 kts 207°
2026-05-05 22:37 52.35382 4.46794 3018 ft 188 kts 207°
2026-05-05 22:38 52.34133 4.45883 3001 ft 202 kts 189°
2026-05-05 22:38 52.32784 4.46134 3001 ft 196 kts 150°
2026-05-05 22:38 52.31738 4.47475 2929 ft 188 kts 131°
2026-05-05 22:38 52.30932 4.49096 2538 ft 179 kts 108°
2026-05-05 22:39 52.30816 4.51022 2146 ft 167 kts 79°
2026-05-05 22:39 52.30929 4.52822 1996 ft 149 kts 81°
2026-05-05 22:39 52.30990 4.54385 2003 ft 139 kts 81°
2026-05-05 22:39 52.31051 4.56014 2002 ft 143 kts 82°
2026-05-05 22:40 52.31103 4.57578 1996 ft 133 kts 82°
2026-05-05 22:40 52.31149 4.59082 1999 ft 132 kts 82°
2026-05-05 22:40 52.31198 4.60581 2028 ft 131 kts 83°
2026-05-05 22:40 52.31224 4.62075 1873 ft 134 kts 84°
2026-05-05 22:41 52.31263 4.63586 1572 ft 128 kts 81°
2026-05-05 22:41 52.31301 4.65039 1372 ft 129 kts 82°
2026-05-05 22:41 52.31366 4.66514 1157 ft 131 kts 81°
2026-05-05 22:41 52.31428 4.67982 923 ft 131 kts 81°
2026-05-05 22:42 52.31476 4.69445 732 ft 125 kts 82°
2026-05-05 22:42 52.31521 4.70887 492 ft 129 kts 81°
2026-05-05 22:42 52.31580 4.72357 357 ft 131 kts 81°
2026-05-05 22:42 52.31635 4.73839 169 ft 132 kts 81°
2026-05-05 22:43 52.31684 4.75324 16 ft 123 kts 81°
2026-05-05 22:43 52.31737 4.76574 -3 ft 86 kts 83°
2026-05-05 22:43 52.31756 4.77198 -4 ft 53 kts 86°
2026-05-05 22:43 52.31762 4.77663 -4 ft 23 kts 115°
2026-05-05 22:44 52.31738 4.77673 -3 ft 4 kts 189°
2026-05-05 22:44 52.31706 4.77625 -2 ft 11 kts 243°
2026-05-05 22:44 52.31641 4.77461 -6 ft 17 kts 236°
2026-05-05 22:44 52.31578 4.77280 -7 ft 17 kts 248°
2026-05-05 22:45 52.31452 4.77196 -6 ft 25 kts 184°
2026-05-05 22:45 52.31367 4.77149 -5 ft 6 kts 267°
2026-05-05 22:45 52.31402 4.77051 -6 ft 13 kts 301°
2026-05-05 22:45 52.31410 4.77029 -7 ft 0 kts 301°